COSMOS 1285 DEB, 12993

Orbit data source: Space-Track

COSMOS 1285 DEB, 12993 is space debris in HEO originally from a launch on Tue, 04 Aug 1981 UTC launched from the Plesetsk Missile And Space Complex (PKMTR). Debris objects in space refer to the collection of defunct objects orbiting the Earth. Examples of debris include non-operational satellites, rocket bodies, and fragments generated from explosions, collisions, or faulty payload assembly.

Loading next visibility...
Identifier
12993, 1981-071E
Orbit
HEO
Country
Flag of CISCIS
Related business
Manufacturer
Unknown
Mission
Spacecraft
Bus & Motor
Unknown
Mass
Unknown
Launch date (UTC)
1981-08-04 (44 years ago)
Launch vehicle
Unknown
Launch site
Plesetsk Missile And Space Complex (PKMTR)
Object type
Payload
Rocket body
Debris
Shape & HBR
Unknown
Radar Cross Section
Large (>1 m²)

Expand to show TLE details & history
Last TLE update: 3 days ago

TLE from 3 days ago
0 COSMOS 1285 DEB
1 12993U 81071E   25258.08019143  .00000240  00000-0  00000-0 0  9995
2 12993  66.8701 104.3098 6548293  12.0143 358.2589  1.97852633232761
Epoch: 2025-09-15T01:55Z
TLE epoch observation values (Epoch: 2025-09-15T01:55:28.539Z)
Latitude
-0.00044°
Longitude
81.14572°
Altitude
2,962.388 km
Speed
8.396 km/s
True Right ascension
06h 57m 13s
True Declination
0° 00' 02"
Sunlit
Object was in daylight at epoch
Visualization orbit readout
Latitude
Unknown
Longitude
Unknown
Altitude
Unknown
Speed
Unknown
Apparent Right ascension
Unknown
Apparent Declination
Unknown
Sunlit
N/A
Visualization observer readout
Local Sidereal Time
15:01:31
Azimuth
Unknown
Elevation
Unknown
Doppler factor
Unknown
Orbital elements
Apogee altitude
37,973.623 km
Perigee altitude
2,872.925 km
Semi-major axis
26,801.411 km
Eccentricity
0.65483
Inclination
66.8701°
RAAN
104.3098°
Arg. of periapsis
12.0143°
True anomaly
349.00901°
Mean anomaly
358.2589°
Eccentric anomaly
354.9681°
Mean motion
0.49466 °/min
Orbital period
727.77 mins
BSTAR
0
Loading maneuver chart data...
Computing Atmospheric mass density...
Loading historical data...
Loading historical data...
Loading historical data...
Loading historical data...
Loading historical data...
Loading historical data...
Loading historical data...

Documentation

Showing up to 5 results
|